[[{"header":{"parameterUnit":"m.s-1","parameterCategory":1,"la1":30.2991,"la2":30.254,"lo1":-89.0895,"lo2":-89.0444,"dy":0.0017,"dx":0.0017,"nx":28,"ny":28,"refTime":"2023-09-25T09:00:00:Z","depth":0,"parameterNumber":2,"parameterNumberName":"U-component_of_WINDS"},"data":[0,0,0,0,0,0,0,0,0,0,0,0,0,0,0,0,0,0,0,0,0,0,0,0,0,0,0,0,0,0,0,0,0,0,0,0,0,0,0,0,0,0,0,0,0,0,0,0,0,0,0,0,0,0,0,0,0,0,-4.4419,-4.4421,0,-4.4558,-4.4559,-4.4561,-4.4531,-4.4528,-4.4526,-4.4523,-4.4665,-4.4671,-4.4677,0,0,0,0,0,0,0,0,0,0,0,0,0,-4.413,-4.4136,-4.4419,-4.4421,-4.4423,-4.4558,-4.4559,-4.4561,-4.4531,-4.4528,-4.4525,-4.4522,-4.4663,-4.4671,-4.4678,0,0,0,0,0,0,0,0,0,0,0,0,0,-4.4261,-4.4137,-4.4419,-4.4424,-4.4426,-4.4557,-4.4559,-4.4562,-4.4532,-4.4528,-4.4524,-4.4521,-4.4661,-4.467,-4.4679,-4.4814,0,0,-4.4707,-4.4711,0,0,0,0,0,0,0,0,-4.4254,-4.4272,-4.4422,-4.4424,-4.4426,-4.4523,-4.451,-4.4646,-4.4533,-4.4492,-4.4523,-4.4519,-4.4621,-4.4633,-4.4668,-4.4821,-4.4827,-4.4708,-4.4714,-4.4718,-4.472,0,0,0,0,0,0,0,-4.4245,-4.4265,-4.4474,-4.4424,-4.4427,-4.442,-4.4434,-4.4535,-4.4577,-4.4495,-4.4493,-4.451,-4.4622,-4.4659,-4.4671,-4.4829,-4.4708,-4.4716,-4.4722,-4.4726,-4.5099,-4.5103,0,0,0,0,0,0,-4.4233,-4.4258,-4.447,-4.4478,-4.4329,-4.4428,-4.4444,-4.4496,-4.4575,-4.4584,-4.4513,-4.4508,-4.4645,-4.466,-4.4676,-4.4838,-4.4718,-4.4726,-4.4732,-4.5095,-4.51,-4.5105,0,0,0,0,0,0,-4.4227,-4.4252,-4.4464,-4.4368,-4.4394,-4.4437,-4.4496,-4.4501,-4.4538,-4.4589,-4.4596,-4.4544,-4.4643,-4.4663,-4.478,-4.4843,-4.4731,-4.4739,-4.509,-4.5096,-4.5102,-4.5164,0,0,0,0,0,0,-4.4219,-4.425,-4.4302,-4.4369,-4.4399,-4.4565,-4.45,-4.4506,-4.4554,-4.4549,-4.4619,-4.4628,-4.4641,-4.4766,-4.4789,-4.4853,-4.4746,-4.5084,-4.5093,-4.51,-4.5156,-4.5172,-4.5185,0,0,0,0,0,-4.4209,-4.4313,-4.4304,-4.433,-4.4464,-4.4569,-4.4586,-4.46,-4.4559,-4.4611,-4.4644,-4.4625,-4.4833,-4.4778,-4.4804,-4.4872,-4.508,-4.509,-4.51,-4.515,-4.5169,-4.5185,0,0,0,0,0,0,-4.4252,-4.4322,-4.4313,-4.4443,-4.45,-4.4564,-4.4629,-4.4619,-4.4689,-4.4681,-4.4695,-4.4712,-4.4831,-4.4864,-4.4802,-4.5007,-4.4951,-4.4966,-4.498,-4.4998,-4.5012,-4.5001,-4.4754,0,0,0,0,0,-4.4277,-4.4355,-4.4413,-4.4522,-4.4551,-4.4586,-4.4632,-4.4637,-4.4697,-4.4721,-4.4763,-4.4822,-4.4901,-4.4952,-4.5027,-4.5162,-4.5177,-4.5222,-4.5236,-4.5248,-4.526,-4.5333,-4.5354,-4.5137,-4.5137,-4.5137,0,0,-4.4328,-4.4376,-4.4425,-4.4532,-4.4577,-4.4658,-4.4606,-4.4694,-4.4755,-4.4735,-4.4847,-4.488,-4.4948,-4.5074,-4.5132,-4.5105,-4.5324,-4.526,-4.5269,-4.5275,-4.5346,-4.5366,-4.5384,-4.5144,-4.5142,-4.5141,0,0,-4.4463,-4.4508,-4.4603,-4.465,-4.4719,-4.4741,-4.4764,-4.4831,-4.4851,-4.4965,-4.4952,-4.5025,-4.516,-4.5208,-4.525,-4.5406,-4.5391,-4.543,-4.5503,-4.5575,-4.5592,-4.5607,-4.5661,-4.568,-4.5443,-4.5443,-4.5443,0,-4.4517,-4.4639,-4.4653,-4.4743,-4.479,-4.4777,-4.4873,-4.4918,-4.5009,-4.5042,-4.5011,-4.518,-4.5225,-4.5362,-4.54,-4.5436,-4.5462,-4.542,-4.5588,-4.5604,-4.5618,-4.567,-4.569,-4.5447,-4.5447,-4.5446,-4.5446,0,-4.4702,-4.4787,-4.4856,-4.4943,-4.4999,-4.5092,-4.512,-4.5175,-4.5177,-4.5203,-4.5319,-4.5372,-4.5458,-4.5492,-4.5494,-4.563,-4.5611,-4.5585,-4.5528,-4.5642,-4.5691,-4.5711,-4.5453,-4.5452,-4.545,-4.5449,0,0,-4.4865,-4.496,-4.4985,-4.5024,-4.5101,-4.5167,-4.526,-4.5344,-4.539,-4.5454,-4.5531,-4.5647,-4.5624,-4.5672,-4.568,-4.5744,-4.5862,-4.5709,-4.5711,-4.5734,-4.6014,-4.6031,-4.6053,-4.5854,-4.5858,-4.5861,-4.6007,0,-4.5004,-4.5167,-4.5183,-4.5329,-4.5407,-4.5397,-4.5478,-4.5534,-4.5562,-4.5633,-4.5664,-4.5745,-4.5708,-4.5737,-4.58,-4.5834,-4.5918,-4.5824,-4.5925,-4.5929,-4.5906,-4.6079,-4.6098,-4.6233,-4.6026,-4.603,-4.6032,0,-4.5188,-4.5257,-4.541,-4.5476,-4.551,-4.5582,-4.566,-4.5729,-4.5793,-4.5809,-4.5864,-4.5864,-4.596,-4.5903,-4.6035,-4.5971,-4.6015,-4.6038,-4.6044,-4.6051,-4.5985,-4.6089,-4.6276,-4.6296,-4.6063,-4.606,-4.6058,0,-4.5288,-4.542,-4.5528,-4.5563,-4.5643,-4.5694,-4.573,-4.5791,-4.584,-4.591,-4.5942,-4.6022,-4.6065,-4.6127,-4.615,-4.6106,-4.6281,-4.6226,-4.6296,-4.6296,-4.6331,-4.6328,-4.6525,-4.6363,-4.6363,-4.6363,-4.6362,0,-4.5441,-4.5535,-4.5574,-4.5641,-4.5746,-4.5765,-4.5869,-4.5902,-4.5956,-4.603,-4.6028,-4.6096,-4.6123,-4.6197,-4.6216,-4.6322,-4.6342,-4.6357,-4.6361,-4.6356,-4.6354,-4.6382,-4.6372,-4.6368,-4.6367,-4.6366,-4.6365,0,-4.5569,-4.56,-4.5717,-4.5784,-4.5803,-4.5878,-4.5935,-4.6,-4.6028,-4.612,-4.6143,-4.6187,-4.6274,-4.6303,-4.6409,-4.6421,-4.6545,-4.6541,-4.6522,-4.6522,-4.659,-4.6583,-4.6811,-4.6841,-4.6662,-4.6663,-4.6665,0,-4.5663,-4.5735,-4.581,-4.5858,-4.5896,-4.5975,-4.6025,-4.6048,-4.6101,-4.6181,-4.6236,-4.6322,-4.6391,-4.653,-4.6572,-4.6653,-4.665,-4.6724,-4.6661,-4.6655,-4.6648,-4.6643,-4.6649,-4.6735,-4.6736,-4.6738,-4.6739,0,-4.5825,-4.5837,-4.591,-4.5989,-4.605,-4.6113,-4.6174,-4.6215,-4.6247,-4.6307,-4.6395,-4.6449,-4.6557,-4.6642,-4.6725,-4.6763,-4.6757,-4.6759,-4.6779,-4.6774,-4.6759,-4.6766,-4.6551,-4.6753,-4.6752,-4.6751,-4.675,-4.6749,-4.5938,-4.6001,-4.6063,-4.6145,-4.6194,-4.6251,-4.6315,-4.6351,-4.6425,-4.6514,-4.6524,-4.6619,-4.6683,-4.6794,-4.6836,-4.6911,-4.689,-4.692,-4.6927,-4.6933,-4.6937,-4.675,-4.6926,-4.6926,-4.6926,-4.6925,-4.6925,0,-4.6098,-4.6139,-4.6214,-4.6299,-4.6364,-4.6353,-4.6421,-4.6476,-4.6559,-4.6619,-4.6688,-4.679,-4.6873,-4.6923,-4.7006,-4.7057,-4.7056,-4.7078,-4.7073,-4.7082,-4.6952,-4.6925,-4.7077,-4.7077,-4.7077,-4.7077,-4.7077,-4.7077,-4.6189,-4.6295,-4.6315,-4.6445,-4.6485,-4.6578,-4.6617,-4.6671,-4.6719,-4.6832,-4.6902,-4.6933,-4.6989,-4.7077,-4.7153,-4.7166,-4.7196,-4.7219,-4.7229,-4.7107,-4.7091,-4.7076,-4.705,-4.7226,-4.7227,-4.7353,-4.7354,-4.7355]},{"header":{"parameterUnit":"m.s-1","parameterCategory":1,"la1":30.2991,"la2":30.254,"lo1":-89.0895,"lo2":-89.0444,"dy":0.0017,"dx":0.0017,"nx":28,"ny":28,"refTime":"2023-09-25T09:00:00:Z","depth":0,"parameterNumber":3,"parameterNumberName":"V-component_of_WINDS"},"data":[0,0,0,0,0,0,0,0,0,0,0,0,0,0,0,0,0,0,0,0,0,0,0,0,0,0,0,0,0,0,0,0,0,0,0,0,0,0,0,0,0,0,0,0,0,0,0,0,0,0,0,0,0,0,0,0,0,0,2.9444,2.9445,0,2.9505,2.9506,2.9507,2.9452,2.945,2.9447,2.9445,2.9505,2.9509,2.9512,0,0,0,0,0,0,0,0,0,0,0,0,0,2.9278,2.9281,2.9444,2.9445,2.9446,2.9505,2.9506,2.9507,2.9452,2.945,2.9447,2.9444,2.9504,2.9508,2.9513,0,0,0,0,0,0,0,0,0,0,0,0,0,2.9346,2.9282,2.9444,2.9426,2.9425,2.9505,2.9506,2.9507,2.9453,2.945,2.9446,2.9443,2.9503,2.9508,2.9513,2.9614,0,0,2.953,2.9533,0,0,0,0,0,0,0,0,2.9342,2.9352,2.9428,2.9427,2.9426,2.9468,2.9469,2.9543,2.9454,2.9442,2.9445,2.9441,2.9495,2.9501,2.952,2.9617,2.9619,2.9531,2.9534,2.9536,2.9538,0,0,0,0,0,0,0,2.9337,2.9349,2.9468,2.9429,2.9428,2.9414,2.942,2.9483,2.9486,2.9443,2.9439,2.9447,2.9494,2.9515,2.9521,2.962,2.953,2.9535,2.9539,2.9541,2.9803,2.9806,0,0,0,0,0,0,2.9335,2.9345,2.9466,2.947,2.9375,2.9419,2.9426,2.9458,2.9486,2.9487,2.945,2.9444,2.9507,2.9514,2.9523,2.9642,2.9536,2.9541,2.9545,2.9799,2.9804,2.9808,0,0,0,0,0,0,2.9331,2.9346,2.9464,2.9407,2.9421,2.9426,2.9462,2.9461,2.9481,2.9491,2.9491,2.947,2.9505,2.9515,2.9592,2.9643,2.9544,2.9549,2.9795,2.98,2.9806,2.9882,0,0,0,0,0,0,2.9327,2.9345,2.9384,2.9408,2.9424,2.9533,2.9465,2.9464,2.9491,2.9484,2.951,2.9511,2.9503,2.9584,2.9597,2.9649,2.9553,2.979,2.9797,2.9804,2.9875,2.9889,2.9902,0,0,0,0,0,2.9321,2.9402,2.9386,2.9401,2.9473,2.9536,2.9545,2.9534,2.9495,2.9534,2.9541,2.9511,2.9636,2.9592,2.9607,2.9661,2.9787,2.9795,2.9803,2.9869,2.9887,2.9902,0,0,0,0,0,0,2.9383,2.9405,2.9387,2.9479,2.9506,2.9527,2.9575,2.9553,2.9591,2.9583,2.9567,2.9574,2.9655,2.9666,2.9617,2.976,2.9705,2.9717,2.975,2.9767,2.978,2.9775,2.9558,0,0,0,0,0,2.9408,2.9458,2.9474,2.9554,2.9568,2.957,2.9597,2.9586,2.9613,2.9624,2.9636,2.9663,2.9708,2.9738,2.978,2.9877,2.9881,2.9921,2.9935,2.9946,2.9955,3.0007,3.0025,2.9835,2.9834,2.9834,0,0,2.9458,2.9477,2.9509,2.9567,2.9586,2.9638,2.9579,2.9636,2.9675,2.9632,2.9706,2.9716,2.9745,2.9832,2.9871,2.9843,3.0009,2.9956,2.9965,2.9969,3.0017,3.0035,3.0051,2.984,2.9839,2.9838,0,0,2.9577,2.9597,2.9665,2.9686,2.9717,2.9718,2.9734,2.9758,2.9764,2.9837,2.9807,2.9852,2.993,2.9952,2.9973,3.0102,3.0075,3.0116,3.0186,3.0236,3.0251,3.0265,3.031,3.0326,3.0126,3.0126,3.0126,0,2.9636,2.9714,2.9702,2.9762,2.9788,2.9754,2.9822,2.9843,2.9886,2.9904,2.9873,2.9972,2.9989,3.008,3.0112,3.013,3.0148,3.0112,3.025,3.0263,3.0276,3.0319,3.0336,3.0131,3.013,3.013,3.0129,0,2.9784,2.9839,2.989,2.9933,2.9965,3.0029,3.0027,3.006,3.0047,3.0051,3.0126,3.0146,3.0191,3.0213,3.02,3.0303,3.0285,3.0253,3.0197,3.0299,3.0339,3.0355,3.0137,3.0136,3.0134,3.0133,0,0,2.9942,2.998,2.9999,3.0018,3.0051,3.0092,3.0154,3.02,3.0229,3.026,3.0311,3.0379,3.035,3.0374,3.0364,3.0409,3.0509,3.0371,3.0371,3.0395,3.0622,3.0646,3.0665,3.0492,3.0495,3.0498,3.062,0,3.0062,3.0171,3.0163,3.0266,3.0316,3.0284,3.0338,3.0364,3.0369,3.0412,3.0417,3.0465,3.0423,3.0438,3.048,3.0487,3.0554,3.0479,3.0539,3.0541,3.0532,3.0686,3.0711,3.0826,3.0635,3.0638,3.064,0,3.0216,3.0254,3.0362,3.0387,3.0407,3.0456,3.0498,3.0539,3.0567,3.0568,3.0596,3.0579,3.0641,3.0585,3.067,3.0619,3.0643,3.0651,3.0655,3.0659,3.0596,3.0694,3.0862,3.0879,3.0665,3.0663,3.0661,0,3.032,3.0398,3.0472,3.049,3.0521,3.0557,3.0571,3.0596,3.0624,3.066,3.0678,3.0721,3.0744,3.0777,3.0772,3.0732,3.0859,3.0802,3.086,3.0861,3.0888,3.0886,3.1061,3.0905,3.0905,3.0904,3.0904,0,3.0454,3.0521,3.052,3.0565,3.064,3.063,3.0703,3.0714,3.0736,3.0783,3.0758,3.0803,3.0793,3.0837,3.0833,3.0904,3.0915,3.0917,3.0915,3.0919,3.0918,3.0934,3.0925,3.0909,3.0908,3.0907,3.0906,0,3.0582,3.0584,3.0663,3.0687,3.0695,3.0748,3.0768,3.0811,3.0815,3.0875,3.0888,3.0894,3.0944,3.0943,3.1,3.0997,3.1084,3.1073,3.1075,3.1072,3.1131,3.1125,3.1321,3.1346,3.1174,3.1176,3.1177,0,3.0667,3.0718,3.0748,3.0778,3.0795,3.0844,3.0873,3.0865,3.0896,3.0933,3.0971,3.102,3.1058,3.1141,3.1149,3.1193,3.1182,3.1248,3.1189,3.1191,3.1183,3.118,3.1185,3.126,3.1261,3.1263,3.1264,0,3.0818,3.0816,3.086,3.0904,3.0939,3.0973,3.1004,3.103,3.1026,3.1062,3.1114,3.1144,3.1203,3.1251,3.1293,3.1307,3.1285,3.1283,3.1299,3.1303,3.1302,3.1303,3.1106,3.1278,3.1277,3.1276,3.1275,3.1275,3.0927,3.0971,3.0999,3.1048,3.1071,3.11,3.1142,3.1152,3.1195,3.1243,3.1236,3.1294,3.1321,3.1375,3.1394,3.1439,3.1415,3.1438,3.1444,3.1449,3.1456,3.1296,3.1446,3.1446,3.1445,3.1445,3.1445,0,3.1075,3.1092,3.1138,3.1182,3.1221,3.1198,3.1232,3.1265,3.1317,3.1344,3.1383,3.1443,3.149,3.1503,3.1548,3.1582,3.1573,3.1594,3.1591,3.1594,3.1474,3.1456,3.16,3.16,3.16,3.16,3.16,3.16,3.1157,3.1231,3.1233,3.1317,3.1333,3.1391,3.1412,3.1439,3.1461,3.1529,3.1569,3.1577,3.1599,3.1646,3.1688,3.169,3.1708,3.1733,3.1731,3.1619,3.1603,3.1588,3.1571,3.1737,3.1737,3.1848,3.1849,3.1849]}]]